This demonstration page uses our WeatherBlox Daily Observations layout. Learn more.

Left ArrowRight Arrow

47.50024, -111.30081

Hourly Observations for May 17, 2021

Temp ( °F °C ) Dew Point ( °F °C ) Humidity (%) Winds ( mph kmh ) Pressure ( in mb ) Visibility ( mi km ) Precip ( " mm )
12:53 am 00:53 Clear 58 14.4 38 3.3 48 48 S 12 19 29.79 1009 10 16 0.00 0.00
1:53 am 01:53 Clear 58 14.4 36 2.2 44 44 SSW 13 20 29.78 1009 10 16 0.00 0.00
2:53 am 02:53 Clear 58 14.4 35 1.7 42 42 SSW 15 24 29.77 1008 10 16 0.00 0.00
3:53 am 03:53 Clear 56 13.3 36 2.2 47 47 SSW 14 22 29.77 1008 10 16 0.00 0.00
4:53 am 04:53 Clear 55 12.8 36 2.2 49 49 SSW 12 19 29.78 1008 10 16 0.00 0.00
5:53 am 05:53 Sunny 54 12.2 37 2.8 53 53 SSW 14 22 29.77 1008 10 16 0.00 0.00
6:53 am 06:53 Sunny 59 15 37 2.8 44 44 SSW 12 19 29.76 1008 10 16 0.00 0.00
7:53 am 07:53 Sunny 63 17.2 38 3.3 40 40 SSW 15 24 29.75 1008 10 16 0.00 0.00
8:53 am 08:53 Sunny 68 20 40 4.4 36 36 SSW 13 20 29.75 1007 10 16 0.00 0.00
9:53 am 09:53 Sunny 72 22.2 38 3.3 29 29 SSW 17 28 29.74 1007 10 16 0.00 0.00
10:53 am 10:53 Mostly Sunny 75 23.9 40 4.4 28 28 SSW 13 20 29.74 1007 10 16 0.00 0.00
11:53 am 11:53 Sunny 78 25.6 38 3.3 24 24 SSW 13 20 29.72 1006 10 16 0.00 0.00
12:53 pm 12:53 Sunny 79 26.1 31 -0.6 17 17 WSW 16 26 29.69 1005 10 16 0.00 0.00
1:53 pm 13:53 Sunny 81 27.2 33 0.6 18 18 WSW 14 22 29.67 1005 10 16 0.00 0.00
2:53 pm 14:53 Sunny 80 26.7 32 0 17 17 SW 9 15 29.66 1005 10 16 0.00 0.00
3:53 pm 15:53 Sunny 81 27.2 35 1.7 19 19 SW 12 19 29.65 1004 10 16 0.00 0.00
4:53 pm 16:53 Sunny 82 27.8 32 0 16 16 WSW 15 24 29.63 1003 10 16 0.00 0.00
5:53 pm 17:53 Sunny 82 27.8 31 -0.6 16 16 W 18 30 29.62 1003 10 16 0.00 0.00
6:53 pm 18:53 Sunny 80 26.7 28 -2.2 15 15 W 16 26 29.61 1003 10 16 0.00 0.00
7:53 pm 19:53 Sunny 74 23.3 39 3.9 28 28 W 7 11 29.61 1003 10 16 0.00 0.00
8:53 pm 20:53 Sunny 63 17.2 37 2.8 38 38 WSW 8 13 29.63 1004 10 16 0.00 0.00
9:53 pm 21:53 Clear 57 13.9 36 2.2 45 45 SW 10 17 29.66 1004 10 16 0.00 0.00
10:53 pm 22:53 Clear 56 13.3 37 2.8 49 49 SW 10 17 29.66 1004 10 16 0.00 0.00
11:53 pm 23:53 Mostly Cloudy 53 11.7 38 3.3 57 57 SW 10 17 29.67 1005 10 16 0.00 0.00

Powered by AerisWeather